Location: Chiroubles
(46.1812°N, 4.6660°E)
Time: 16:52:20
(UTC+00:00)

Cosmos 2237 Rocket - Pass Details

Date: 15 August 2020
Orbit: 836 x 848 km, 71.0° (Epoch: 22 September)

Event Time Altitude Azimuth Distance (km) Brightness Sun altitude
Rises 22:35:49 0° 336° (NNW) 3,408 6.6 -28.1°
Reaches altitude 10° 22:38:22 10° 342° (NNW) 2,468 5.6 -28.3°
Maximum altitude 22:43:51 49° 57° (ENE) 1,077 2.7 -28.6°
Enters shadow 22:44:05 49° 65° (ENE) 1,081 2.7 -28.6°
